Location: Santa Barbara
(34.4500°N, 119.7700°W)
Time: 18:38:34
(UTC-08:00)

Envisat - Pass Details

Date: 26 October 2019
Orbit: 764 x 766 km, 98.1° (Epoch: 20 November)

Event Time Altitude Azimuth Distance (km) Brightness Sun altitude
Rises 20:04:23 0° 199° (SSW) 3,217 6.5 -23.8°
Reaches altitude 10° 20:07:07 10° 213° (SSW) 2,295 5.8 -24.4°
Maximum altitude 20:11:05 23° 265° (W) 1,586 5.4 -25.2°
Drops below altitude 10° 20:15:04 10° 317° (NW) 2,306 6.0 -26.0°
Sets 20:17:51 0° 332° (NNW) 3,236 6.6 -26.6°
